Wind_Speed
19 21 23 25 26 26 24 23 25 28 29 29 28 28 30 32 34 35 35 36 36 37 37 38 40 40 41 41 41 41 42 44 45 45 46 46 46 45 44 44 44 44 44 44 43 41 41 41 40 38 37 37 36 36 37 38 38 38 38 39 40 40 40
21 23 25 27 28 28 27 26 28 30 31 31 30 31 32 35 36 36 36 36 36 37 38 39 40 41 41 41 41 42 43 44 45 45 46 46 46 46 45 43 42 42 43 43 43 42 40 40 39 39 39 40 40 39 40 40 40 40 40 40 41 40 40
22 24 26 28 30 30 28 28 30 31 33 33 32 32 34 36 37 37 37 36 36 37 39 40 41 41 42 43 43 43 43 44 44 45 45 45 45 45 44 43 41 40 41 41 43 43 41 40 39 39 39 40 41 41 42 43 42 41 40 40 42 42 41
23 24 26 29 30 30 28 30 32 32 33 34 33 33 35 37 37 37 37 37 37 38 40 41 42 42 43 44 44 45 44 44 44 45 45 44 44 43 42 42 40 39 38 38 40 41 41 40 39 39 39 40 40 41 42 42 42 42 41 40 41 43 42
24 24 26 29 31 30 29 31 33 33 33 34 33 35 38 38 38 38 38 38 38 39 41 42 42 43 45 46 46 47 46 46 45 45 45 43 42 41 40 39 38 37 37 37 38 39 40 39 39 38 39 41 41 41 42 42 42 42 42 41 40 41 41
24 25 26 29 31 31 31 33 34 33 34 34 34 37 40 40 39 39 39 39 39 40 41 42 43 44 45 47 48 48 48 47 47 46 44 42 41 40 39 38 37 36 37 38 39 39 40 40 39 39 40 42 42 41 42 42 42 42 42 41 40 40 40
24 25 26 29 31 31 33 35 34 34 35 34 35 38 40 40 40 40 40 40 41 42 42 43 44 45 46 47 48 49 49 48 48 47 45 42 40 39 38 38 38 38 38 39 39 40 40 41 40 39 39 41 41 41 41 41 41 41 41 41 41 41 41
25 25 27 28 29 30 33 35 34 34 35 35 36 39 40 40 40 40 41 41 42 43 44 44 45 45 47 48 48 49 49 49 48 48 45 42 40 39 39 39 39 40 40 40 39 39 39 40 39 37 37 38 39 39 39 39 39 39 40 40 40 41 41
25 26 26 27 28 30 34 35 35 35 35 35 37 39 40 40 40 40 41 42 43 44 44 45 45 46 47 48 49 49 49 48 47 46 44 41 40 39 39 40 40 40 40 39 39 38 38 37 35 34 34 34 36 37 37 37 37 37 38 39 39 40 40
25 26 26 26 28 31 34 35 35 35 35 36 37 39 40 39 39 39 40 41 42 43 44 45 45 46 48 49 50 50 48 46 45 44 42 41 40 40 39 40 39 38 37 37 37 36 35 34 32 31 31 31 33 35 35 35 35 35 36 37 38 39 38
25 25 26 27 29 32 35 36 35 35 35 37 38 39 40 40 39 39 41 41 42 43 44 44 45 46 48 49 50 50 47 45 43 42 41 40 39 39 39 38 37 36 35 34 34 34 33 32 31 29 28 29 30 33 34 33 33 33 33 34 36 36 35
25 25 26 28 31 34 35 36 35 35 36 38 39 41 41 40 40 40 41 41 42 43 44 45 46 47 48 49 49 48 45 43 42 40 39 38 38 37 37 36 35 34 33 33 33 32 30 30 29 28 27 28 30 30 31 31 31 32 31 31 32 32 33
25 25 27 29 32 35 36 36 36 36 38 39 40 42 42 41 40 41 42 43 43 44 45 46 46 47 48 48 47 46 44 42 40 38 37 36 36 35 34 34 33 32 32 32 31 29 28 27 26 25 24 26 28 27 27 28 30 30 29 28 28 29 31
25 26 28 31 34 35 36 36 36 37 39 40 42 44 43 42 41 43 44 44 45 46 47 47 47 46 46 46 46 44 42 40 39 36 35 35 34 33 32 32 32 31 32 31 28 27 27 26 24 23 23 24 25 24 23 25 27 28 28 27 26 26 28
26 27 29 32 34 35 36 36 37 39 40 42 44 45 44 43 43 44 45 46 47 48 48 47 47 46 45 45 44 42 40 39 37 35 34 34 33 32 31 31 31 31 32 29 26 26 26 24 22 22 22 23 22 18 17 19 22 24 25 25 25 25 25
27 28 31 33 34 35 35 36 39 41 42 43 45 45 44 43 44 45 46 47 48 49 48 47 46 46 44 43 42 40 39 39 37 34 34 33 32 31 31 30 30 31 31 28 25 25 23 21 20 20 20 21 19 15 14 16 17 18 21 23 24 24 24
29 31 33 33 34 34 35 38 41 43 43 44 45 45 44 43 45 47 48 48 49 49 48 48 47 45 44 42 41 39 38 39 37 34 32 32 30 29 30 31 30 30 30 28 25 24 22 21 20 20 19 17 15 14 14 15 16 16 17 20 21 23 24
32 34 34 33 33 34 36 41 43 43 43 44 45 44 43 43 45 47 49 49 50 49 48 48 47 45 44 42 40 37 37 37 36 33 31 30 29 28 29 31 31 31 30 29 27 25 24 23 23 22 19 15 14 15 16 15 16 16 17 18 19 22 24
35 35 34 33 32 34 38 42 42 41 43 44 45 44 43 43 46 48 49 50 49 49 48 48 47 45 43 41 38 35 34 34 32 30 30 30 28 27 28 30 30 31 30 29 27 26 25 25 24 22 18 15 15 16 17 17 17 18 18 18 19 21 22
35 34 33 33 33 36 40 42 40 40 43 44 44 43 42 44 47 48 49 49 48 48 48 48 46 44 42 39 35 33 32 31 30 30 30 30 28 27 28 29 30 30 30 29 27 27 26 24 21 19 16 14 15 16 17 18 18 18 19 19 20 19 19
34 34 34 34 36 39 42 41 40 41 42 44 43 42 43 45 47 48 48 48 48 48 48 47 45 43 40 37 33 32 31 31 32 31 31 30 29 28 27 28 29 29 29 28 27 26 25 22 19 17 14 13 13 15 17 19 19 19 19 19 19 17 16
33 34 35 37 39 41 41 40 40 40 40 42 43 42 44 46 47 47 47 47 48 48 48 46 44 43 41 37 34 32 31 31 32 33 32 31 30 28 27 27 28 28 27 27 26 25 23 20 17 16 14 11 11 14 17 20 20 19 19 18 17 16 17
33 34 36 38 40 41 41 41 40 38 38 40 42 42 44 45 46 46 46 46 47 47 47 45 43 42 41 39 36 33 31 30 31 32 32 31 29 27 26 26 27 27 26 25 25 24 22 19 17 16 15 12 10 11 15 19 21 20 18 18 15 15 17
34 35 37 39 40 41 42 41 40 38 38 40 42 43 43 44 45 46 46 46 47 46 45 44 43 43 42 40 37 33 30 29 30 31 31 30 28 26 24 24 25 25 24 24 23 22 21 19 17 16 16 15 13 13 12 15 19 21 17 15 12 11 12
35 36 38 40 41 42 42 42 41 40 40 41 43 43 43 44 45 46 46 47 46 45 44 43 43 44 43 40 36 32 30 29 29 30 31 29 28 26 23 23 23 23 23 23 21 20 20 19 17 17 17 17 16 16 11 10 14 17 16 12 8 9 11
36 38 40 42 43 43 43 42 42 42 43 43 44 45 45 45 46 46 47 46 45 43 42 42 43 43 41 38 34 30 29 29 29 30 30 29 28 26 23 22 22 21 22 22 21 19 18 18 18 18 19 18 18 17 14 9 9 9 13 11 11 13 13
38 40 42 43 44 44 44 44 44 45 46 46 46 46 46 46 47 47 46 45 43 41 40 40 41 41 38 35 32 30 29 29 29 30 29 28 26 24 22 22 21 20 20 21 21 18 17 18 19 19 20 20 20 18 16 13 9 6 8 11 16 18 15
41 42 43 43 44 44 45 45 46 47 48 48 48 48 47 46 47 46 44 42 41 39 39 39 40 39 38 35 32 30 29 28 28 28 27 25 24 22 21 21 21 20 19 20 20 19 17 17 19 21 21 22 22 20 17 17 14 9 6 7 14 21 20
42 43 44 44 45 46 46 46 47 47 48 49 49 49 48 47 46 45 43 41 40 39 39 39 39 38 38 36 32 30 29 28 26 25 24 22 21 21 20 21 20 19 19 19 19 18 16 16 17 20 21 22 23 23 20 18 17 14 10 7 7 14 19
44 44 45 45 46 46 46 47 47 48 48 49 50 49 48 47 46 45 42 40 39 39 39 38 38 37 37 35 31 29 29 27 24 22 21 21 21 21 21 20 20 19 19 18 18 18 17 15 15 17 19 20 22 23 22 20 18 17 15 11 7 7 10
45 45 45 45 45 46 47 47 48 48 49 50 50 50 48 46 45 43 40 38 37 37 37 37 37 36 35 34 31 28 28 26 23 21 20 20 20 21 21 20 20 19 18 18 17 17 17 15 14 15 16 18 19 21 21 20 19 18 16 14 10 7 6
44 44 44 44 45 46 47 48 48 49 49 50 50 49 47 45 43 40 37 35 35 37 37 37 36 35 34 33 30 27 27 27 24 21 20 19 20 20 20 20 19 18 18 17 17 17 16 16 15 15 15 16 17 18 20 21 20 18 17 15 12 8 6
43 43 43 44 45 46 47 48 48 48 49 49 49 47 46 44 42 38 36 35 36 38 39 37 35 34 33 32 29 26 26 26 24 22 21 19 19 19 20 19 19 18 18 17 17 17 16 16 15 15 15 15 16 16 18 20 20 19 17 15 14 10 8
43 43 44 45 46 47 48 48 48 49 49 49 49 47 45 42 40 38 37 37 38 40 40 37 36 35 33 32 29 26 25 25 23 21 20 20 19 20 20 20 19 19 18 17 17 17 17 16 15 16 16 15 15 16 16 18 20 20 18 16 14 12 10
43 44 45 46 47 48 48 48 48 49 49 49 48 47 44 41 40 39 39 39 39 39 39 38 38 37 33 30 29 26 25 24 23 21 20 20 19 20 20 19 20 20 20 18 17 16 17 17 16 15 15 15 15 16 16 17 18 20 20 18 15 13 11
45 45 46 47 48 48 49 49 48 49 49 49 47 45 42 40 40 40 40 39 38 38 38 39 39 36 31 27 26 25 24 24 23 22 21 20 20 20 20 20 20 20 20 19 17 16 15 16 16 15 15 15 15 16 16 16 17 18 20 20 18 16 14
47 47 48 48 49 49 48 48 48 48 48 47 46 44 42 40 39 39 38 37 36 36 36 35 34 30 27 24 23 22 22 23 22 22 22 22 21 21 22 22 22 20 19 18 17 16 15 15 16 15 15 15 14 14 15 16 16 17 18 20 20 18 16
49 49 49 50 49 48 47 47 47 46 46 45 43 42 41 40 38 37 36 35 35 34 32 29 27 26 25 23 20 20 21 21 21 22 22 21 20 20 21 23 23 22 20 18 16 16 16 16 17 17 15 15 14 14 14 15 15 16 16 18 19 20 19
Wind_Direction
309 311 310 310 313 317 318 313 312 321 326 326 326 326 326 326 326 325 324 321 319 318 317 316 317 317 315 314 312 310 308 306 304 303 302 302 302 301 299 298 297 296 294 293 291 289 286 284 281 276 271 269 268 267 265 264 263 264 264 264 264 261 257
309 311 310 308 310 315 316 311 309 319 326 327 326 326 327 327 326 325 324 322 321 319 318 318 318 318 316 315 313 311 309 307 306 304 303 303 301 300 299 298 297 297 295 294 292 289 285 282 278 275 271 267 267 267 267 266 263 261 261 260 259 257 256
308 310 309 307 309 314 315 308 309 319 326 326 325 326 327 326 325 325 324 324 323 321 320 320 320 319 317 315 314 312 311 309 307 306 305 304 302 300 299 299 299 298 297 295 293 290 287 283 278 274 270 267 266 266 265 265 263 260 257 256 254 253 252
308 309 306 304 308 314 313 307 310 321 325 324 324 325 325 325 324 325 325 325 325 324 323 322 321 320 318 317 316 314 313 311 310 309 307 305 303 302 301 301 301 299 297 295 293 291 290 287 282 276 271 268 266 265 264 264 263 260 257 254 253 253 252
309 307 304 302 306 312 311 308 313 320 322 322 322 323 324 325 325 325 325 327 327 325 324 323 322 320 319 318 317 316 315 315 314 313 310 308 306 304 302 301 300 298 297 295 292 291 290 288 283 277 272 269 267 266 265 265 263 261 259 256 255 255 255
309 305 301 300 304 310 310 309 314 320 320 320 320 322 324 325 324 325 326 327 327 325 324 323 323 322 320 319 318 318 317 317 317 316 313 311 309 306 304 302 299 297 295 293 292 291 290 289 285 279 272 269 268 267 266 265 264 262 260 257 256 255 256
307 301 297 297 303 309 308 309 314 319 319 317 318 322 324 324 323 325 327 327 326 324 324 324 323 322 321 319 318 318 319 319 319 317 315 312 310 308 305 303 300 298 295 293 292 292 292 291 288 283 276 271 268 267 267 266 265 263 260 257 255 255 255
304 298 295 298 303 306 304 307 313 317 316 315 317 322 323 322 324 325 326 325 324 323 323 323 323 322 320 319 319 319 319 319 319 317 315 312 310 308 306 304 301 299 296 294 293 293 293 291 289 286 280 275 271 268 268 268 266 264 262 259 257 256 256
301 298 296 299 301 302 302 306 312 315 314 313 317 321 322 322 323 324 323 323 322 321 321 321 321 320 319 319 319 319 319 319 318 316 314 312 311 309 308 305 303 300 298 297 296 295 292 289 286 283 279 276 273 271 269 268 266 263 261 259 257 257 258
302 299 298 300 301 301 303 306 311 313 312 311 317 321 321 321 322 322 321 320 320 319 319 319 319 319 318 318 318 318 319 319 318 316 314 313 312 311 310 308 306 303 301 300 299 296 292 287 282 279 276 273 274 273 270 267 264 261 259 257 255 254 255
304 301 301 302 301 302 303 306 311 312 310 312 318 320 320 320 320 320 319 318 318 318 318 318 318 317 317 316 316 317 319 319 317 315 314 313 312 312 312 311 310 308 306 304 302 298 293 287 281 277 273 272 274 274 269 265 261 260 259 257 254 252 250
302 300 301 301 302 302 304 308 312 310 309 314 318 319 319 319 319 318 317 317 317 318 318 318 317 316 315 315 315 316 319 319 316 315 314 312 313 315 315 314 312 311 309 306 303 301 296 289 284 279 274 274 278 274 264 259 258 258 258 255 252 250 249
298 299 300 300 301 302 305 309 310 308 310 316 318 318 318 317 317 316 316 317 318 318 318 317 316 314 313 313 314 316 318 318 316 314 313 312 315 318 318 316 313 312 311 309 306 302 298 294 289 283 278 280 285 277 261 254 254 254 253 250 248 249 249
297 298 299 299 300 302 306 309 308 309 313 316 316 316 316 315 315 315 317 318 319 317 316 315 314 313 313 314 315 317 318 317 315 314 313 313 316 320 320 317 314 313 313 312 309 303 299 296 293 288 284 285 287 280 266 257 252 249 247 244 245 247 247
297 297 297 297 299 303 307 309 309 311 313 313 313 314 314 314 314 315 317 318 317 315 314 313 313 314 315 315 316 318 318 317 316 315 313 313 317 321 321 318 314 313 313 314 311 304 300 299 296 291 288 286 283 278 274 263 251 243 239 238 240 244 245
296 295 295 298 301 305 308 309 311 312 311 310 311 312 313 313 313 315 316 315 314 313 313 313 315 317 317 317 318 319 319 317 316 313 312 313 316 320 322 321 317 313 313 314 310 304 304 306 305 298 291 284 277 275 280 274 262 251 243 238 238 241 244
294 293 294 299 302 305 308 310 311 310 308 308 310 311 312 312 312 313 313 312 311 312 313 315 317 317 318 318 319 320 320 318 316 312 311 312 315 320 323 323 320 315 313 314 309 301 303 309 310 306 299 288 279 279 282 279 273 269 260 250 244 242 244
292 292 295 300 302 304 308 310 309 308 307 308 308 310 310 310 310 310 310 309 309 311 313 316 317 318 318 318 319 320 319 319 317 312 310 311 313 319 322 323 322 317 314 315 312 302 298 299 300 302 301 297 291 289 288 283 276 273 269 261 253 248 246
291 293 297 300 301 303 306 308 308 308 307 307 307 308 309 308 308 308 308 307 308 310 313 315 317 318 317 317 317 318 318 319 319 314 311 310 312 316 320 321 323 320 316 315 314 309 301 296 293 294 293 295 298 294 292 288 277 269 266 262 256 251 251
292 296 299 297 295 299 305 308 308 308 307 305 305 307 307 306 307 307 307 306 308 310 312 315 316 316 316 315 315 316 315 316 317 316 313 310 310 313 317 319 321 321 318 315 314 312 307 299 295 295 291 291 301 302 295 290 280 268 263 260 255 252 253
296 297 295 292 291 297 304 308 308 307 306 304 304 305 305 305 305 305 305 307 309 311 312 313 314 314 315 314 313 314 313 311 311 312 312 310 308 309 314 316 319 320 318 315 314 312 310 303 299 301 297 293 303 307 297 288 280 270 262 259 255 249 248
295 293 290 289 292 298 304 306 306 306 304 301 302 303 303 303 304 304 304 307 309 311 311 311 312 314 315 314 313 313 312 310 309 309 309 309 307 308 311 314 316 317 316 315 314 311 310 307 304 308 306 297 299 302 296 289 283 273 264 259 253 243 241
292 291 291 293 295 299 303 305 304 303 300 298 298 300 301 302 303 303 305 307 309 309 309 310 311 314 314 313 312 312 312 311 309 308 307 306 305 307 310 311 313 314 314 315 314 312 312 312 312 314 311 297 283 287 294 292 285 277 267 260 253 243 245
293 294 294 295 296 298 300 302 301 300 299 297 297 298 301 302 302 303 305 307 308 308 308 309 311 312 311 310 309 310 310 309 307 305 303 302 302 305 308 309 310 311 312 313 314 312 311 312 314 315 311 301 283 275 291 299 288 279 269 260 256 250 247
294 293 292 293 294 296 298 299 299 300 300 298 298 300 302 303 303 304 306 307 308 309 309 310 310 311 311 310 307 306 306 306 303 301 298 297 298 302 305 305 307 309 310 311 313 311 307 307 310 310 309 307 294 276 281 314 305 283 268 257 236 215 212
292 291 290 292 294 297 299 300 300 301 302 301 301 301 303 305 306 305 305 306 308 309 309 310 311 312 313 311 306 303 302 302 300 298 295 294 295 299 302 302 304 307 307 309 312 311 305 301 302 305 305 307 305 288 276 306 328 290 262 246 204 191 204
292 292 293 295 298 300 301 301 302 302 302 302 301 302 303 305 306 305 304 305 307 309 310 312 313 313 313 311 307 302 300 300 299 298 296 293 293 296 299 299 301 305 306 306 309 311 306 297 295 300 302 303 308 302 283 288 316 309 263 239 213 207 215
293 295 297 300 301 302 302 302 301 301 301 301 301 301 302 304 304 303 302 304 306 309 312 314 315 313 311 311 309 304 301 301 301 299 296 293 291 294 297 297 300 305 306 304 306 309 309 300 292 294 298 299 304 307 296 289 298 307 295 257 229 223 223
296 298 300 301 301 300 300 299 298 298 298 298 299 299 300 301 301 301 302 304 307 309 312 314 315 312 310 310 309 305 302 301 300 299 295 293 293 295 297 298 300 305 306 303 302 304 307 305 296 292 294 296 299 304 303 297 296 299 302 303 266 239 232
297 298 297 297 297 296 296 295 295 295 295 295 295 296 297 299 301 301 302 304 306 307 310 312 314 312 309 307 307 305 301 299 299 297 293 294 296 298 299 301 302 304 305 303 300 300 302 304 303 298 296 296 298 302 304 303 300 299 298 301 306 283 252
293 293 293 292 293 293 293 293 293 292 292 293 294 295 298 300 302 303 303 304 305 306 308 311 313 313 309 305 304 304 300 296 294 293 291 293 297 299 301 303 304 304 304 301 298 298 298 299 301 302 301 301 301 304 306 306 304 303 302 299 300 310 307
290 290 290 290 291 291 292 292 292 292 292 293 295 297 299 301 302 302 301 303 304 305 307 310 312 312 308 303 302 303 299 294 291 290 291 292 295 298 301 303 304 304 304 302 298 296 296 295 294 296 299 302 305 306 308 309 307 305 305 304 299 298 317
289 289 290 291 291 292 292 292 293 293 293 294 296 298 300 301 301 299 299 301 303 303 305 307 310 310 306 301 299 299 296 293 290 290 291 291 291 293 297 299 302 304 305 305 302 297 295 294 291 290 293 297 302 305 307 309 309 307 304 304 304 297 287
291 292 292 293 293 293 293 293 293 293 294 296 297 299 301 301 300 298 298 300 301 300 301 304 307 307 302 297 296 295 292 290 290 289 289 289 288 291 295 297 299 301 302 304 303 300 297 296 293 289 288 290 294 300 304 306 308 308 306 303 303 303 290
293 293 292 292 292 292 292 291 291 293 295 297 298 299 300 299 298 297 298 299 299 298 299 303 305 303 297 292 292 292 289 287 288 287 286 286 287 290 294 295 296 297 297 299 302 301 299 298 298 294 291 289 289 292 297 301 303 306 308 306 303 303 299
293 292 291 291 291 292 292 292 293 295 296 297 298 298 298 297 295 295 296 297 296 297 301 304 302 297 290 287 288 290 288 287 287 286 285 285 285 287 288 289 289 291 293 295 298 300 299 298 300 299 297 293 290 288 288 291 294 297 303 307 307 305 303
292 291 292 292 292 292 293 295 296 296 297 298 298 298 296 295 293 293 294 294 295 299 302 303 300 293 285 283 285 286 285 284 284 284 283 282 282 284 285 285 285 286 287 290 292 294 297 297 297 297 297 295 293 289 285 284 285 287 291 297 302 306 307
292 293 294 294 295 296 297 297 297 298 298 297 297 296 295 294 293 292 292 291 293 297 299 301 300 293 284 282 283 281 281 282 282 282 282 281 282 283 284 284 286 286 285 284 283 284 287 289 290 290 291 291 290 289 287 285 283 283 283 286 290 295 301
Height
5902 5901 5899 5897 5895 5893 5891 5890 5888 5887 5884 5882 5880 5878 5876 5874 5872 5870 5868 5865 5862 5859 5856 5853 5850 5847 5844 5842 5839 5837 5834 5831 5828 5826 5823 5820 5817 5814 5811 5809 5807 5805 5803 5801 5800 5799 5797 5795 5795 5795 5795 5795 5796 5797 5797 5798 5798 5798 5798 5798 5798 5799 5801
5900 5898 5896 5894 5891 5889 5888 5886 5885 5883 5880 5878 5876 5875 5873 5871 5868 5866 5864 5861 5859 5856 5852 5849 5846 5843 5840 5838 5835 5833 5830 5827 5824 5821 5818 5815 5812 5808 5805 5803 5801 5799 5797 5795 5793 5792 5791 5789 5788 5788 5788 5788 5789 5790 5791 5791 5792 5792 5793 5792 5792 5792 5794
5897 5895 5893 5890 5888 5886 5885 5883 5881 5879 5877 5874 5873 5871 5869 5867 5865 5862 5860 5857 5855 5851 5848 5845 5842 5839 5836 5833 5831 5828 5826 5823 5820 5817 5814 5811 5807 5804 5800 5798 5796 5794 5792 5789 5786 5785 5784 5783 5783 5782 5781 5781 5782 5783 5783 5784 5784 5786 5787 5786 5786 5786 5788
5894 5892 5889 5886 5884 5883 5881 5879 5877 5876 5873 5871 5869 5867 5865 5863 5861 5858 5856 5853 5850 5846 5843 5840 5838 5835 5832 5829 5826 5823 5821 5819 5816 5813 5809 5806 5803 5800 5796 5793 5791 5788 5786 5784 5781 5779 5777 5777 5776 5776 5775 5775 5775 5776 5776 5777 5777 5778 5780 5780 5781 5781 5782
5891 5888 5885 5882 5880 5879 5877 5875 5873 5872 5870 5867 5866 5864 5862 5859 5856 5854 5852 5849 5846 5842 5839 5836 5834 5830 5827 5824 5821 5818 5815 5813 5810 5807 5804 5801 5798 5795 5792 5789 5786 5783 5781 5778 5776 5774 5772 5771 5770 5770 5769 5768 5768 5768 5769 5770 5770 5771 5772 5774 5775 5776 5777
5887 5884 5881 5879 5877 5876 5874 5871 5869 5868 5866 5864 5862 5860 5857 5855 5852 5850 5847 5844 5841 5838 5835 5832 5829 5826 5823 5819 5816 5813 5810 5807 5804 5801 5798 5795 5792 5790 5787 5784 5782 5779 5777 5774 5771 5769 5767 5766 5765 5764 5763 5762 5762 5762 5762 5763 5764 5765 5766 5767 5769 5770 5771
5884 5881 5878 5876 5875 5873 5870 5867 5866 5865 5863 5861 5859 5857 5854 5851 5848 5846 5842 5839 5836 5833 5831 5828 5825 5822 5819 5815 5812 5808 5805 5802 5798 5795 5792 5790 5787 5784 5782 5779 5777 5774 5772 5769 5766 5764 5762 5761 5759 5758 5758 5757 5756 5757 5757 5757 5758 5758 5759 5761 5763 5764 5765
5881 5878 5876 5874 5872 5870 5867 5864 5863 5862 5860 5858 5856 5854 5851 5848 5845 5841 5837 5834 5832 5829 5826 5823 5821 5818 5815 5812 5808 5805 5802 5798 5794 5790 5787 5785 5782 5780 5777 5775 5772 5769 5766 5764 5762 5760 5758 5756 5754 5752 5752 5751 5751 5751 5752 5752 5752 5752 5753 5754 5756 5757 5759
5877 5875 5873 5871 5869 5866 5863 5862 5860 5859 5857 5855 5853 5851 5847 5844 5841 5838 5834 5831 5828 5825 5822 5820 5817 5814 5811 5808 5805 5802 5798 5794 5790 5786 5783 5780 5777 5775 5772 5770 5767 5764 5761 5759 5757 5754 5752 5751 5749 5747 5746 5746 5745 5745 5746 5746 5747 5747 5747 5748 5750 5751 5752
5874 5872 5870 5868 5865 5863 5860 5859 5858 5856 5854 5852 5850 5848 5844 5841 5838 5835 5832 5828 5826 5823 5820 5817 5813 5810 5807 5803 5800 5797 5794 5791 5787 5782 5779 5775 5773 5770 5767 5765 5762 5759 5757 5754 5752 5749 5747 5745 5744 5742 5741 5741 5740 5740 5740 5740 5741 5741 5742 5743 5744 5746 5747
5871 5868 5866 5864 5862 5859 5857 5856 5855 5853 5851 5849 5847 5844 5841 5838 5836 5833 5829 5826 5823 5820 5817 5813 5810 5807 5803 5799 5796 5793 5790 5786 5783 5779 5775 5771 5768 5765 5763 5760 5757 5754 5752 5750 5747 5744 5742 5740 5739 5738 5737 5736 5736 5735 5734 5735 5735 5736 5736 5737 5739 5741 5742
5867 5865 5863 5861 5858 5856 5854 5853 5851 5849 5847 5845 5842 5840 5837 5835 5832 5829 5827 5824 5821 5817 5814 5810 5807 5804 5800 5796 5792 5789 5786 5782 5778 5775 5771 5768 5765 5762 5759 5756 5753 5750 5748 5745 5743 5740 5738 5736 5734 5733 5733 5732 5731 5730 5730 5730 5730 5730 5731 5733 5734 5736 5737
5864 5862 5860 5858 5855 5853 5851 5850 5848 5845 5843 5840 5837 5835 5833 5831 5828 5825 5822 5820 5816 5813 5810 5807 5804 5800 5796 5793 5789 5785 5782 5778 5774 5771 5768 5765 5762 5759 5756 5753 5750 5747 5745 5742 5739 5736 5734 5733 5731 5730 5729 5729 5727 5726 5726 5726 5726 5726 5727 5728 5730 5732 5733
5860 5858 5856 5854 5852 5850 5848 5846 5844 5841 5838 5835 5833 5831 5829 5826 5824 5821 5817 5814 5811 5808 5806 5803 5800 5796 5792 5789 5785 5782 5778 5775 5771 5768 5765 5762 5759 5756 5753 5750 5747 5745 5742 5739 5736 5734 5732 5730 5728 5727 5726 5725 5724 5722 5722 5723 5722 5722 5723 5724 5726 5727 5728
5856 5855 5853 5851 5848 5846 5845 5842 5839 5836 5833 5831 5829 5826 5824 5822 5819 5815 5812 5809 5806 5804 5801 5798 5795 5792 5788 5784 5781 5778 5775 5771 5768 5765 5762 5759 5756 5753 5751 5748 5745 5742 5740 5737 5734 5732 5729 5727 5726 5724 5723 5722 5721 5720 5719 5718 5717 5717 5718 5720 5721 5723 5724
5853 5851 5849 5847 5845 5843 5841 5838 5835 5832 5829 5827 5824 5822 5819 5817 5813 5810 5807 5805 5802 5800 5797 5793 5790 5787 5783 5780 5777 5774 5771 5768 5765 5762 5759 5756 5754 5751 5748 5746 5743 5740 5737 5735 5732 5729 5727 5725 5723 5722 5721 5720 5718 5717 5716 5715 5714 5714 5715 5716 5718 5719 5720
5849 5847 5845 5844 5843 5840 5837 5834 5831 5829 5826 5823 5820 5817 5815 5812 5808 5805 5803 5800 5798 5795 5792 5788 5785 5782 5779 5775 5772 5770 5767 5764 5761 5759 5756 5754 5751 5749 5746 5743 5741 5738 5735 5733 5730 5727 5725 5723 5721 5720 5718 5717 5716 5715 5713 5713 5712 5712 5712 5713 5714 5715 5716
5844 5843 5842 5841 5839 5836 5833 5831 5828 5825 5822 5819 5816 5813 5811 5808 5804 5801 5799 5796 5793 5790 5787 5783 5780 5777 5774 5771 5768 5766 5763 5760 5757 5755 5753 5751 5749 5747 5744 5741 5739 5736 5733 5730 5727 5725 5723 5721 5720 5718 5716 5715 5714 5712 5711 5710 5710 5710 5710 5710 5711 5711 5712
5840 5839 5839 5837 5835 5832 5830 5828 5825 5822 5818 5814 5811 5809 5807 5804 5800 5797 5794 5791 5788 5786 5782 5779 5776 5773 5770 5767 5764 5762 5760 5757 5754 5752 5750 5748 5746 5744 5742 5739 5737 5734 5731 5728 5725 5723 5721 5719 5717 5716 5714 5712 5711 5710 5708 5707 5707 5707 5707 5707 5707 5707 5708
5837 5836 5835 5833 5830 5829 5827 5824 5821 5818 5814 5809 5807 5805 5803 5800 5797 5793 5790 5786 5784 5781 5778 5775 5772 5769 5766 5763 5761 5758 5756 5754 5752 5749 5747 5745 5744 5742 5739 5737 5735 5732 5729 5726 5724 5721 5719 5717 5715 5713 5711 5710 5708 5707 5705 5704 5703 5703 5703 5703 5703 5704 5705
5834 5832 5830 5828 5826 5825 5822 5819 5816 5813 5809 5805 5802 5801 5798 5796 5792 5789 5785 5782 5779 5776 5774 5771 5769 5766 5763 5760 5758 5755 5753 5751 5748 5746 5744 5742 5740 5738 5737 5734 5732 5730 5727 5725 5722 5719 5717 5714 5712 5710 5708 5707 5706 5704 5703 5701 5700 5700 5700 5700 5700 5700 5702
5829 5828 5826 5824 5822 5820 5818 5815 5812 5809 5806 5801 5799 5797 5794 5791 5788 5785 5781 5778 5775 5773 5770 5768 5765 5762 5759 5757 5755 5752 5749 5747 5745 5743 5741 5739 5737 5735 5733 5731 5730 5728 5725 5723 5720 5718 5715 5713 5710 5708 5706 5705 5704 5703 5701 5699 5698 5697 5697 5697 5697 5698 5699
5825 5823 5821 5819 5817 5815 5812 5810 5807 5805 5802 5798 5795 5793 5790 5787 5784 5781 5778 5775 5772 5769 5767 5764 5762 5759 5756 5753 5751 5749 5746 5744 5741 5739 5737 5735 5734 5732 5730 5728 5727 5725 5723 5721 5719 5716 5714 5711 5709 5707 5705 5703 5702 5701 5700 5698 5696 5695 5694 5695 5695 5696 5697
5820 5819 5816 5814 5812 5809 5807 5805 5803 5801 5798 5795 5791 5789 5787 5783 5780 5777 5774 5771 5769 5766 5764 5761 5758 5756 5753 5750 5748 5746 5743 5740 5738 5736 5734 5732 5730 5729 5727 5725 5724 5722 5721 5719 5717 5715 5713 5710 5707 5705 5703 5702 5700 5700 5699 5697 5694 5693 5692 5693 5694 5695 5696
5816 5814 5811 5809 5807 5804 5802 5800 5797 5795 5793 5790 5786 5784 5782 5779 5775 5772 5769 5767 5765 5763 5760 5757 5754 5751 5749 5746 5744 5742 5739 5736 5734 5732 5730 5728 5727 5726 5724 5722 5721 5720 5718 5716 5715 5713 5711 5709 5706 5704 5702 5700 5699 5697 5696 5695 5693 5691 5691 5691 5692 5693 5693
5810 5808 5806 5803 5801 5798 5796 5793 5790 5788 5786 5783 5781 5779 5776 5774 5770 5767 5764 5762 5760 5758 5756 5753 5750 5747 5745 5742 5740 5738 5735 5732 5730 5728 5726 5725 5724 5722 5721 5720 5718 5717 5716 5714 5713 5711 5710 5707 5705 5703 5701 5699 5697 5695 5694 5694 5692 5690 5690 5690 5691 5691 5690
5804 5802 5799 5797 5794 5792 5789 5787 5784 5782 5779 5777 5775 5773 5771 5768 5765 5762 5759 5757 5756 5754 5752 5749 5746 5743 5741 5739 5737 5734 5731 5728 5726 5724 5723 5722 5721 5720 5718 5717 5716 5715 5713 5712 5710 5709 5708 5706 5704 5702 5700 5698 5696 5694 5692 5691 5690 5689 5688 5688 5688 5688 5687
5798 5796 5793 5791 5788 5786 5783 5781 5779 5777 5774 5772 5770 5767 5765 5763 5760 5757 5755 5753 5751 5749 5747 5745 5742 5739 5737 5735 5733 5731 5727 5725 5723 5721 5720 5719 5718 5717 5716 5714 5713 5712 5711 5710 5709 5707 5706 5705 5703 5701 5699 5697 5695 5693 5691 5689 5689 5687 5686 5686 5685 5685 5685
5793 5790 5788 5785 5783 5781 5779 5776 5774 5772 5769 5766 5764 5762 5760 5758 5755 5752 5750 5749 5747 5745 5743 5741 5738 5735 5732 5731 5730 5727 5724 5722 5720 5718 5717 5716 5715 5714 5713 5712 5711 5710 5709 5708 5707 5705 5705 5704 5702 5700 5698 5696 5694 5692 5690 5688 5687 5686 5685 5684 5683 5683 5683
5787 5785 5783 5781 5778 5776 5774 5772 5770 5767 5764 5761 5758 5756 5755 5753 5750 5748 5746 5744 5742 5740 5739 5737 5735 5732 5729 5727 5726 5724 5721 5719 5717 5716 5715 5713 5712 5711 5710 5709 5708 5708 5707 5706 5705 5703 5703 5702 5700 5699 5697 5695 5693 5691 5689 5687 5685 5684 5683 5683 5682 5681 5681
5782 5780 5778 5776 5774 5772 5769 5767 5764 5761 5758 5755 5753 5750 5749 5747 5745 5743 5741 5740 5738 5736 5735 5733 5731 5728 5725 5723 5722 5721 5718 5716 5714 5713 5712 5711 5710 5709 5708 5707 5706 5705 5704 5704 5702 5701 5700 5700 5698 5697 5695 5694 5692 5690 5688 5686 5684 5683 5682 5681 5680 5680 5679
5777 5775 5773 5771 5769 5766 5764 5761 5759 5756 5753 5750 5747 5745 5743 5742 5741 5739 5738 5736 5734 5732 5731 5729 5727 5724 5722 5720 5718 5717 5715 5712 5711 5710 5709 5708 5707 5706 5705 5704 5703 5702 5702 5701 5700 5699 5698 5697 5696 5695 5693 5692 5691 5689 5687 5685 5683 5682 5680 5679 5679 5678 5678
5771 5769 5767 5765 5763 5760 5758 5755 5753 5750 5747 5744 5742 5740 5739 5737 5736 5735 5734 5732 5730 5728 5726 5724 5723 5721 5719 5716 5715 5714 5712 5709 5708 5707 5706 5706 5705 5704 5703 5702 5701 5700 5699 5699 5698 5697 5696 5695 5694 5692 5691 5690 5689 5688 5686 5684 5683 5681 5679 5678 5677 5677 5676
5765 5763 5761 5759 5756 5753 5751 5749 5746 5744 5741 5739 5737 5736 5734 5732 5731 5730 5729 5728 5726 5724 5722 5720 5718 5717 5715 5713 5712 5711 5709 5707 5706 5705 5704 5703 5702 5701 5700 5699 5698 5697 5697 5697 5696 5695 5694 5693 5692 5690 5689 5688 5687 5686 5685 5684 5682 5680 5679 5677 5676 5675 5675
5759 5756 5754 5752 5750 5748 5745 5743 5741 5739 5737 5735 5733 5731 5729 5728 5726 5725 5724 5722 5720 5719 5717 5715 5713 5712 5711 5709 5708 5707 5706 5705 5703 5702 5701 5700 5700 5699 5698 5696 5695 5694 5694 5694 5694 5693 5692 5691 5689 5688 5687 5686 5685 5684 5684 5683 5682 5680 5679 5677 5676 5675 5674
5752 5750 5748 5746 5744 5742 5740 5738 5736 5734 5732 5730 5728 5726 5724 5722 5721 5719 5718 5716 5715 5713 5712 5710 5708 5706 5706 5705 5704 5704 5703 5702 5700 5699 5698 5698 5697 5696 5695 5694 5693 5691 5691 5691 5691 5691 5690 5689 5688 5686 5685 5684 5684 5683 5682 5681 5681 5680 5678 5677 5676 5675 5673
5745 5744 5742 5740 5738 5736 5734 5733 5731 5729 5727 5725 5722 5721 5719 5717 5715 5713 5712 5711 5710 5709 5707 5705 5703 5701 5701 5701 5701 5700 5700 5699 5697 5696 5695 5695 5694 5693 5692 5691 5690 5689 5689 5689 5688 5688 5688 5687 5686 5685 5683 5682 5682 5681 5680 5679 5679 5678 5677 5676 5676 5675 5673
5739 5738 5736 5734 5733 5731 5729 5727 5725 5723 5721 5719 5717 5715 5713 5712 5710 5708 5707 5706 5705 5704 5703 5701 5700 5698 5698 5697 5697 5697 5697 5695 5694 5693 5692 5692 5691 5690 5689 5688 5686 5686 5686 5686 5686 5685 5685 5684 5683 5683 5682 5681 5680 5679 5678 5678 5677 5676 5676 5675 5675 5674 5673